Regional Weather Roundup
Issued by NWS Goodland, KS

Home | Current Version | Previous Version | Graphics & Text | Print | Product List | Glossary On
Versions: 1 2 3 4 5 6 7 8 9 10 11 12 13 14 15 16 17 18 19 20 21 22 23 24 25 26 27 28 29 30 31 32 33 34 35 36 37 38 39 40 41 42 43 44 45 46 47 48 49 50
000
ASUS43 KGLD 230108
RWRGLD

GOODLAND FORECAST AREA HOURLY WEATHER ROUNDUP
NATIONAL WEATHER SERVICE GOODLAND KS
700 PM MDT FRI MAY 22 2015

...OFFICIAL OBSERVATIONS...

CITY           SKY/WX    TMP DP  RH WIND       PRES   REMARKS
GOODLAND KS    CLOUDY    54  52  93 SE15G24   30.00S
HILL CITY KS   CLOUDY    54  53  97 E9        30.07F FOG
IMPERIAL NEB   LGT RAIN  49  47  93 E16       30.03F
MCCOOK NEB     CLOUDY    51  50  96 E13       30.07S FOG
AKRON CO       CLOUDY    52  51  97 E12       29.99S FOG
BURLINGTON CO  PTSUNNY   55  52  89 SE24      29.96R
LIMON CO       LGT RAIN  50  47  89 NE15      29.96F
$$

...UNOFFICIAL OBSERVATIONS...

CITY           SKY/WX    TMP DP  RH WIND       PRES   REMARKS
COLBY KS       CLOUDY    55  55 100 E12       30.04S
GOVE KS          N/A     56  32  40 MISG        N/A
LENORA KS        N/A     52  32  46 MISG        N/A
NORTON KS      CLOUDY    54  50  87 E13       30.07F FOG
SHARON SPRINGS   N/A     57  54  90 MISG        N/A
TRENTON NEB      N/A     50  32  50 E16         N/A
KIT CARSON CO    N/A     64  55  72 MISG        N/A
YUMA CO          N/A     54  54 100 E12         N/A
$$


USA.gov is the U.S. government's official web portal to all federal, state and local government web resources and services.